Regional Weather Roundup
Issued by NWS Cleveland, OH

Home | Current Version | Previous Version | Text Only | Print | Product List | Glossary Off
Versions: 1 2 3 4 5 6 7 8 9 10 11 12 13 14 15 16 17 18 19 20 21 22 23 24 25 26 27 28 29 30 31 32 33 34 35 36 37 38 39 40 41 42 43 44 45 46 47 48 49 50

000
ASUS41 KCLE 250212
RWRCLE
OHIO REGIONAL WEATHER ROUNDUP
NATIONAL WEATHER SERVICE WILMINGTON, OH
1000 PM EDT SUN SEP 24 2017

NOTE: "FAIR" INDICATES FEW OR NO CLOUDS BELOW 12,000 FEET WITH NO
SIGNIFICANT WEATHER AND/OR OBSTRUCTIONS TO VISIBILITY.

OHZ001>008-015>018-024>027-034-035-043-044-250300-
   NORTHWEST OHIO

CITY           SKY/WX    TMP DP  RH WIND       PRES   REMARKS
DEFIANCE       FAIR      74  62  66 E5        30.08R
FINDLAY        FAIR      73  64  73 CALM      30.07R
TOLEDO EXPRESS FAIR      72  68  87 E3        30.08R
TOLEDO EXEC    FAIR      74  67  78 E6        30.09R
LIMA           FAIR      66  61  84 S5        30.08R
$$

OHZ009>014-019>023-028>033-038-089-250300-
   NORTHEAST OHIO

CITY           SKY/WX    TMP DP  RH WIND       PRES   REMARKS
CLE-HOPKINS    FAIR      77  66  68 CALM      30.10S
CLE-LAKEFRONT  FAIR      73  68  84 NE6       30.08R
CUY CO. ARPT   PTCLDY    77  68  73 E6        30.11S
LORAIN-ELYRIA  FAIR      67  60  78 CALM      30.10R
ASHTABULA      FAIR      67  67 100 CALM      30.12S
AKRON-CANTON   FAIR      77  60  55 E6        30.11R
WOOSTER        FAIR      64  62  93 CALM      30.11R
MANSFIELD      FAIR      72  62  71 NE3       30.11R
YOUNGSTOWN     FAIR      75  68  78 NE8       30.11S
$$

OHZ042-051>053-060>062-070>072-077>081-250300-
  SOUTHWEST OHIO

CITY           SKY/WX    TMP DP  RH WIND       PRES   REMARKS
CINC-COVINGTON MOCLDY    74  55  51 CALM      30.06S
CINC-LUNKEN    FAIR      65  61  87 CALM      30.06R
HAMILTON       FAIR      63  60  90 CALM      30.06S
DAYTON         FAIR      76  54  46 S3        30.09R
WRIGHT-PAT AFB FAIR      68  63  82 CALM      30.07R
DAYTON GENERAL FAIR      75  54  47 E5        30.07R
WILMINGTON     FAIR      71  61  70 E3        30.08S
$$

OHZ036-037-039>041-045>050-054>059-063>069-073>076-082>088-250300-
  CENTRAL AND SOUTHEAST OHIO

CITY           SKY/WX    TMP DP  RH WIND       PRES   REMARKS
COLUMBUS       FAIR      74  65  73 NE3       30.07R
OSU AIRPORT    FAIR      73  63  70 CALM      30.07S
BOLTON FIELD   FAIR      67  64  88 CALM      30.08S
RICKENBACK AFB FAIR      71  62  73 CALM      30.07R
NEWARK         FAIR      67  64  90 CALM      30.08R
MARION         FAIR      73  59  61 CALM      30.09R
LANCASTER      FAIR      65  63  93 CALM      30.09R
ZANESVILLE     FAIR      72  63  73 CALM      30.09R
NEW PHILLY     FAIR      68  65  90 CALM      30.10R
$$




USA.gov is the U.S. government's official web portal to all federal, state and local government web resources and services.